FENGYUN 1C DEB, 31923

Orbit data source: Space-Track

FENGYUN 1C DEB, 31923 is space debris in SSO originally from a launch on Mon, 10 May 1999 UTC launched from the Taiyaun Space Center, China (TSC). Fengyun 1C debris stems from the Chinese weather satellite Fengyun-1C, which was intentionally destroyed by a Chinese anti-satellite missile in 2007. This event dramatically increased the amount of space debris, with thousands of trackable fragments posing hazards to satellites and human spaceflight. The Fengyun 1C debris cloud has become a focal point in discussions about space sustainability and the need for international regulations to prevent the creation of new debris.

Loading next visibility...
Identifier
31923, 1999-025CMA
Orbit
SSO
Country
Flag of CNCN / PRC
Related business
Manufacturer
Unknown
Mission
Spacecraft
Bus & Motor
Unknown
Mass
Unknown
Launch date (UTC)
1999-05-10 (27 years ago)
Launch vehicle
Unknown
Launch site
Taiyaun Space Center, China (TSC)
Object type
Payload
Rocket body
Debris
Shape & HBR
Unknown shape, 1.1 m
Radar Cross Section
Medium (>0.1 m² and <1 m²)

Expand to show TLE details & history
Last TLE update: 3 weeks ago

TLE from 3 weeks ago
0 FENGYUN 1C DEB
1 31923U 99025CMA 26151.66660457  .00001369  00000-0  15206-2 0  9993
2 31923  98.4275 225.9805 0300093 220.5706 137.2721 13.55335408659362
Epoch: 2026-05-31T15:59Z
TLE epoch observation values (Epoch: 2026-05-31T15:59:54.634Z)
Latitude
-0.00003°
Longitude
96.83786°
Altitude
1,222.347 km
Speed
7.162 km/s
True Right ascension
15h 03m 55s
True Declination
0° 00' 00"
Sunlit
Object was in full shadow at epoch
Visualization orbit readout
Latitude
Unknown
Longitude
Unknown
Altitude
Unknown
Speed
Unknown
Apparent Right ascension
Unknown
Apparent Declination
Unknown
Sunlit
N/A
Visualization observer readout
Local Sidereal Time
07:12:05
Azimuth
Unknown
Elevation
Unknown
Doppler factor
Unknown
Orbital elements
Apogee altitude
1,272.833 km
Perigee altitude
827.011 km
Semi-major axis
7,428.059 km
Eccentricity
0.03001
Inclination
98.4275°
RAAN
225.9805°
Arg. of periapsis
220.5706°
True anomaly
139.54217°
Mean anomaly
137.2721°
Eccentric anomaly
138.41336°
Mean motion
3.39024 °/min
Orbital period
106.19 mins
BSTAR
0.0015206
Loading maneuver chart data...
Computing Atmospheric mass density...

Documentation

Showing up to 5 results
|